RH
50 55 40 48 96 100 100 100 84 81 94 87 75 100 100 100 100 63 83 75 79 74 78 70 76 76 100 100 100 92 68 81 84 69 58 57 53 38 33 32 25 18 26 22 21 19 18
45 57 56 43 52 89 100 100 100 100 100 100 100 95 100 83 100 76 95 91 81 96 76 76 76 86 93 100 98 78 96 100 90 75 76 71 66 56 44 46 34 27 21 31 28 25 24
51 48 54 52 39 58 69 74 93 100 100 100 100 100 90 81 95 90 99 95 93 83 82 80 84 94 100 96 95 100 100 100 90 86 85 70 52 48 43 40 38 33 24 22 31 26 23
63 60 61 52 50 53 68 69 64 60 63 64 59 62 63 64 68 74 100 88 90 98 84 75 97 99 87 90 100 100 85 84 93 91 71 63 62 65 64 57 57 51 46 45 39 34 27
72 70 95 56 42 61 89 82 73 71 71 65 55 52 51 58 81 100 100 86 88 83 71 93 99 83 100 100 100 88 96 94 76 74 74 75 74 68 61 58 68 71 42 53 53 39 42
81 64 66 77 53 50 62 100 95 93 85 59 44 31 48 85 100 100 90 98 76 50 47 63 91 87 93 88 100 93 86 82 81 82 84 83 78 80 85 88 78 71 61 48 45 47 57
96 72 77 97 67 45 58 90 100 100 70 48 38 41 59 83 81 100 99 71 40 37 38 47 65 70 100 100 99 100 98 90 89 80 68 58 55 53 54 54 52 49 43 32 27 32 38
84 73 82 90 79 52 47 59 100 100 71 47 40 56 89 96 100 71 61 47 44 38 39 69 85 100 100 85 80 87 86 89 73 61 59 60 57 52 50 47 40 28 17 15 12 12 13
76 56 54 68 83 51 46 65 100 100 70 57 50 55 89 100 88 80 72 62 54 48 54 94 89 88 73 66 68 82 82 64 62 53 62 56 54 52 44 34 28 22 14 13 13 15 14
75 66 70 60 71 57 48 77 100 100 81 71 63 87 100 100 98 98 100 87 69 65 88 97 94 76 89 90 97 93 66 60 52 59 58 48 42 39 33 19 13 12 15 15 10 6 6
87 75 81 74 92 77 61 85 100 100 96 85 67 90 100 100 100 100 100 83 73 74 65 93 81 90 97 86 77 71 57 47 54 54 50 45 43 32 17 14 15 16 10 5 6 5 5
94 90 89 81 60 79 76 100 100 100 99 94 93 96 100 100 100 100 100 89 63 60 76 85 97 92 77 76 64 51 52 67 58 48 41 36 28 16 13 18 16 8 6 6 6 4 5
99 100 90 65 66 96 89 100 100 100 98 99 100 100 100 100 100 100 90 67 82 93 96 100 95 84 69 53 48 46 46 54 53 42 36 30 24 14 18 16 8 7 6 6 6 5 6
97 97 100 80 84 88 81 100 100 96 87 99 100 100 100 100 94 78 74 91 83 88 100 100 89 70 56 48 47 40 41 48 44 38 28 21 21 18 19 10 7 7 6 6 6 7 8
100 79 88 96 76 90 92 100 100 100 100 100 100 100 100 96 78 63 87 97 69 69 100 93 71 64 57 48 39 39 43 39 38 27 22 18 23 21 11 8 6 6 6 6 7 7 8
100 88 93 94 88 100 100 100 100 100 96 97 100 99 91 70 63 67 72 63 66 95 96 80 68 66 53 40 44 40 40 39 34 26 22 20 22 20 10 8 6 6 7 7 6 6 6
100 88 69 48 61 100 100 100 99 100 97 91 100 100 100 97 81 70 81 79 96 96 87 81 71 50 45 48 51 43 45 36 31 25 27 26 26 15 9 8 7 7 7 6 6 6 6
100 100 79 57 75 86 98 100 100 95 97 88 100 100 100 83 73 83 79 66 93 98 85 55 46 50 51 56 45 43 48 34 36 32 34 34 27 12 8 8 8 8 7 7 7 7 7
100 100 99 84 95 100 100 100 100 100 99 100 100 100 82 79 88 93 82 100 88 73 63 52 69 64 57 58 48 50 44 44 38 40 32 34 23 11 8 9 9 8 7 7 8 10 9
100 100 100 99 97 100 100 100 100 100 100 100 96 92 89 92 100 95 88 90 77 70 59 66 74 73 64 54 46 49 48 44 46 46 37 36 21 10 8 9 10 9 8 8 9 10 11
100 100 100 74 91 100 100 100 100 100 100 89 94 89 98 95 95 85 89 90 83 66 74 87 77 67 63 62 43 46 56 52 53 41 44 39 21 11 9 9 9 9 9 9 10 10 11
100 100 97 96 100 100 100 100 100 100 92 92 100 95 94 96 93 85 90 100 72 80 98 87 86 76 72 52 50 55 64 58 56 47 50 38 17 12 11 11 10 10 10 10 10 11 12
100 97 64 71 100 100 100 100 100 98 94 100 100 95 82 87 91 82 84 84 85 98 96 92 75 79 55 57 56 73 73 51 54 54 52 38 16 12 12 13 12 12 11 9 10 11 14
96 92 84 98 100 100 100 100 100 100 99 100 100 81 69 73 80 94 80 99 96 100 96 81 79 66 60 52 72 89 69 62 53 61 55 38 15 12 13 14 14 14 14 12 10 10 12
97 88 100 100 100 100 100 100 100 100 100 100 72 60 66 77 100 86 100 97 94 99 93 83 73 58 55 74 88 91 70 74 58 58 53 36 15 13 13 14 15 15 17 14 13 13 12
100 100 100 100 100 100 100 100 100 100 100 93 66 66 71 95 92 100 88 100 100 89 74 82 61 58 68 93 97 87 75 58 69 64 47 30 16 14 14 14 15 14 15 16 15 14 13
100 92 70 100 100 100 100 100 100 100 100 72 66 73 83 90 86 90 100 100 96 83 78 67 60 71 77 96 87 81 72 68 70 64 52 23 16 15 15 15 17 15 14 14 15 15 16
92 94 100 100 100 100 100 100 100 100 89 70 72 95 84 85 96 100 100 100 90 82 64 64 71 77 99 96 88 87 73 74 76 57 48 20 19 18 18 17 18 18 15 15 15 16 16
100 100 100 100 100 100 100 100 100 100 84 75 95 89 95 98 100 100 100 100 76 61 69 68 75 97 98 96 99 76 83 79 70 55 27 20 20 18 18 17 17 18 17 15 16 16 17
Wind_Speed
37 35 33 33 31 32 32 28 30 30 32 31 31 30 30 30 31 36 34 34 36 35 34 32 31 32 33 34 34 37 40 41 43 41 41 41 44 45 47 49 50 47 47 44 47 55 58
39 35 34 34 34 35 35 34 28 30 27 27 29 31 31 32 35 39 37 36 35 36 36 36 36 36 36 36 40 42 44 46 47 46 47 50 54 54 54 58 59 60 60 55 53 58 61
41 37 37 34 34 37 37 38 39 38 36 37 36 38 39 41 38 40 38 37 38 37 37 38 38 39 40 40 43 44 47 51 51 53 56 59 63 63 65 67 68 66 68 72 68 70 70
39 39 37 37 36 36 39 41 39 39 39 40 41 43 45 43 41 39 39 37 37 38 40 41 41 41 41 42 44 47 50 51 55 59 64 66 66 69 74 76 76 78 81 81 83 83 85
40 40 40 40 37 36 38 41 40 42 42 41 40 41 43 41 38 36 39 41 41 40 42 42 40 40 41 42 48 48 50 55 60 61 64 66 70 74 79 80 80 85 91 94 96 100 102
46 42 44 39 37 37 38 41 43 42 41 41 40 38 34 34 36 42 41 40 37 40 42 42 43 41 44 43 51 53 52 56 62 63 69 75 78 81 83 86 90 94 99 106 108 109 112
55 50 42 41 40 37 39 38 39 37 38 37 38 37 36 38 38 38 36 35 37 42 45 44 43 45 49 48 51 54 63 65 66 71 77 82 85 87 91 96 102 109 114 117 118 121 123
57 52 42 43 39 39 39 41 39 38 37 35 34 36 33 36 35 37 37 36 40 42 42 46 46 48 50 54 57 58 61 68 75 80 84 88 90 95 102 110 116 121 125 127 125 127 129
53 48 44 43 42 42 41 41 41 38 35 34 35 35 37 37 41 44 41 42 47 48 46 47 47 50 59 57 59 62 67 73 81 85 86 92 96 105 113 122 128 134 137 134 135 135 136
50 46 45 45 45 45 43 41 40 39 36 37 37 34 39 43 47 48 47 50 52 50 45 49 53 55 58 63 66 70 73 79 87 90 93 99 106 113 120 127 131 130 138 136 121 109 106
46 48 46 46 45 46 45 41 41 39 37 38 39 38 42 43 48 51 49 48 48 51 54 54 57 58 61 66 70 74 79 86 90 94 99 106 115 123 128 134 137 137 119 100 96 91 89
52 50 48 47 45 47 44 41 40 39 40 40 41 40 42 48 49 51 52 51 54 55 56 57 60 62 67 71 75 80 84 90 96 100 106 114 124 132 132 134 133 113 95 87 86 81 77
50 48 51 49 44 45 43 41 42 42 45 44 42 43 45 49 51 49 50 53 55 57 59 60 64 68 70 76 81 86 87 93 99 100 107 116 132 135 134 126 106 96 84 75 72 75 69
45 48 48 48 46 43 43 42 44 46 48 40 41 43 48 52 52 51 52 52 55 59 62 65 70 74 77 80 85 90 94 97 100 107 114 120 129 132 129 110 90 82 74 67 61 63 66
47 49 47 45 45 46 43 43 43 45 40 39 43 46 50 51 54 54 53 56 61 64 67 70 73 77 83 88 91 93 99 100 102 111 117 123 127 133 115 98 83 71 66 60 56 58 60
45 50 46 48 44 45 42 40 41 43 39 40 44 47 52 55 57 61 63 65 65 66 69 74 79 86 89 93 91 100 99 103 113 120 125 128 127 128 105 91 78 65 60 58 57 53 57
53 51 48 49 43 44 45 42 43 42 41 44 45 52 56 60 63 65 64 64 66 69 75 80 84 89 90 97 98 101 104 108 116 121 128 131 136 119 98 84 72 69 62 58 57 55 52
44 49 50 43 43 45 47 45 43 42 45 45 49 54 58 64 61 60 62 66 69 74 77 82 85 90 92 97 103 105 109 113 119 125 131 133 133 110 92 81 73 67 63 61 57 54 50
51 51 43 41 42 43 45 45 46 44 46 50 49 54 60 59 61 61 64 67 72 76 79 84 88 92 98 100 108 114 116 116 123 129 133 136 128 105 88 76 73 71 66 59 53 47 49
54 44 41 41 39 41 43 43 46 47 50 53 53 58 59 62 62 65 68 72 75 79 82 87 91 98 104 107 112 116 115 119 124 131 133 136 124 101 85 76 71 71 66 58 49 43 41
57 47 43 42 38 40 42 45 46 49 53 55 57 59 61 64 66 70 72 77 78 83 87 89 95 101 106 110 118 116 116 123 127 132 134 134 120 100 87 78 74 69 61 55 48 42 37
51 49 43 38 42 45 45 48 51 53 56 56 55 58 63 65 68 72 76 77 82 87 90 95 101 102 107 112 113 112 116 120 127 132 135 132 116 97 86 81 77 69 59 52 45 41 37
51 43 38 42 46 46 48 50 52 54 55 55 57 62 66 69 71 74 78 80 84 89 93 99 103 108 113 112 111 114 118 123 129 133 136 131 113 96 87 82 77 68 60 51 45 40 37
45 39 43 44 46 46 48 52 53 55 56 58 61 66 69 72 74 79 79 83 88 92 97 101 107 113 113 112 112 116 121 127 132 135 137 130 111 95 88 82 76 67 59 53 47 42 37
44 40 45 42 44 45 46 48 50 53 57 62 64 67 72 73 77 81 83 89 92 96 101 106 111 110 111 110 115 120 124 130 133 136 137 128 111 98 90 83 75 65 57 51 49 43 39
47 47 42 42 46 47 47 49 51 55 59 64 67 71 76 76 80 82 88 91 95 102 105 109 111 111 109 115 118 124 129 131 136 138 136 125 110 99 92 83 73 64 58 52 48 45 40
45 43 46 45 48 49 52 52 53 58 62 66 70 75 77 80 81 87 89 94 101 107 108 110 110 109 114 119 122 127 131 135 138 141 136 122 109 99 94 85 76 67 59 53 48 43 40
42 38 38 45 48 50 52 55 58 62 65 69 74 76 80 84 86 90 94 99 104 106 106 107 108 113 119 122 126 131 135 138 142 141 133 117 106 97 90 81 73 68 61 54 49 43 39
45 40 41 44 46 51 55 57 61 67 70 73 77 79 83 87 90 93 97 101 103 106 109 109 112 118 121 126 130 134 138 142 143 138 126 113 103 95 87 80 71 63 60 55 50 44 39
Wind_Direction
320 315 314 304 292 291 302 303 301 305 303 303 307 316 309 307 301 313 312 313 315 313 315 311 308 309 306 303 304 303 306 304 305 302 298 295 293 291 286 288 285 281 274 272 262 265 263
318 310 308 309 297 289 292 297 296 306 300 302 306 300 302 310 307 306 309 307 309 306 308 308 308 307 302 300 300 302 301 302 302 299 298 299 296 295 291 291 290 291 291 278 266 266 259
316 310 306 308 306 292 291 295 297 297 294 293 295 296 297 303 301 301 301 303 304 305 306 307 307 306 303 297 300 300 301 304 304 304 302 302 300 296 295 293 290 288 286 284 273 268 267
312 307 304 304 308 302 293 291 294 297 298 297 301 298 296 300 299 298 299 304 302 299 304 307 306 304 302 303 297 299 301 302 305 304 304 303 300 297 298 296 294 290 287 283 278 276 278
307 305 305 303 303 303 298 295 295 293 295 298 300 299 301 302 303 304 304 303 299 303 306 305 300 301 302 297 298 299 301 305 307 307 303 300 298 296 295 295 292 288 288 285 282 283 279
316 306 301 301 301 302 301 296 293 292 295 299 300 304 300 303 301 304 302 300 307 307 305 302 300 300 300 299 300 301 300 303 307 307 304 300 299 298 297 293 289 285 282 281 280 280 277
312 310 300 299 298 301 303 297 294 289 294 297 304 304 302 302 302 302 304 307 311 314 311 304 301 303 304 301 304 304 306 311 308 303 302 302 299 295 292 289 287 286 284 283 283 281 278
310 309 298 298 297 299 303 298 297 287 292 300 298 300 301 302 300 314 311 307 311 311 307 302 306 306 304 304 305 304 305 304 306 307 307 303 298 295 293 293 292 290 290 291 290 286 282
309 308 309 298 295 297 302 299 296 287 293 298 296 300 305 299 307 310 306 304 309 310 308 302 300 304 307 306 304 304 304 305 305 305 304 301 296 294 294 293 294 294 295 294 290 286 282
306 305 303 307 298 296 298 295 292 288 292 299 294 301 302 302 307 307 305 306 306 306 306 305 307 310 308 307 306 306 307 306 307 307 306 302 298 297 296 296 298 299 296 295 290 281 275
302 305 301 301 297 297 296 290 289 286 292 298 298 299 303 307 306 304 304 307 306 305 306 307 309 310 308 305 305 305 308 307 309 307 306 302 300 300 301 303 302 302 299 293 289 282 276
296 299 298 296 298 296 295 285 287 287 294 296 295 297 302 305 305 306 306 304 305 307 308 308 308 306 307 307 308 307 310 312 312 310 307 305 305 305 308 308 307 304 301 296 289 282 278
293 291 293 295 296 294 293 285 287 288 294 296 294 301 302 305 305 306 306 308 309 309 309 308 307 308 308 308 310 312 312 312 311 308 308 308 307 309 312 314 311 306 300 292 286 284 279
291 290 288 294 291 289 290 289 288 291 292 295 297 298 303 303 304 310 312 310 310 310 309 308 308 309 310 313 313 313 315 314 312 311 311 310 311 314 318 316 313 304 300 294 287 281 277
286 291 290 287 288 290 291 292 291 292 292 294 296 297 300 301 304 307 307 308 308 310 308 310 312 313 314 314 315 315 318 315 314 313 314 315 318 322 322 318 314 308 301 294 287 281 276
283 291 287 282 289 283 285 289 286 290 289 293 297 300 305 303 304 307 306 307 308 308 308 310 311 312 313 315 318 321 319 319 319 318 319 321 325 326 323 320 316 311 304 299 293 286 281
277 282 286 286 285 281 279 289 294 286 287 294 301 303 304 306 305 305 308 309 309 309 310 311 314 314 316 318 319 321 322 323 322 323 325 327 329 329 325 323 319 314 310 305 301 295 286
267 276 281 288 280 282 281 286 287 287 291 296 298 303 304 305 307 308 309 311 311 311 314 314 315 317 318 321 322 323 325 324 324 325 329 330 332 330 327 326 321 317 314 310 305 298 288
271 274 277 283 281 278 284 284 284 290 292 293 302 303 308 308 310 310 312 314 314 314 316 316 317 318 319 321 324 324 324 324 325 327 330 332 333 332 329 328 323 319 317 313 307 301 292
270 263 267 269 276 280 277 279 283 286 290 292 301 304 307 310 309 311 311 313 314 316 316 317 318 319 321 322 324 326 326 327 327 329 331 333 334 333 330 328 326 323 319 314 308 303 295
263 264 267 272 280 283 279 281 285 287 288 293 298 304 309 310 310 308 309 312 314 316 315 317 319 320 322 323 324 326 327 327 328 330 332 335 336 335 331 330 328 326 322 317 314 309 300
259 259 265 271 283 285 281 279 282 286 289 296 302 306 308 310 310 309 312 313 315 316 315 318 319 320 321 324 326 327 328 329 329 331 333 335 337 336 333 331 330 328 325 321 317 312 305
249 253 269 273 280 283 281 279 281 284 291 297 304 304 307 309 311 314 314 315 315 315 317 318 319 320 322 325 326 328 328 329 330 331 334 336 337 336 334 333 331 329 327 325 320 314 309
252 266 268 274 279 283 282 280 282 286 291 299 301 303 307 309 312 312 315 316 315 315 317 319 320 322 323 325 327 328 329 329 330 332 334 335 336 336 335 334 332 330 328 326 322 318 313
250 258 267 272 280 285 281 282 285 288 294 299 302 305 308 310 311 314 315 314 315 316 317 319 320 322 325 326 328 327 328 329 330 332 334 335 336 336 336 335 332 331 328 326 322 319 316
250 260 263 275 282 281 278 283 289 293 295 299 303 307 309 310 312 314 314 313 315 317 318 319 321 325 325 327 327 328 328 329 330 332 334 335 335 335 335 334 333 331 329 327 323 319 315
247 261 267 278 281 276 279 284 292 294 295 299 304 306 308 310 312 314 312 313 316 317 318 320 324 324 326 327 327 327 328 328 330 332 333 334 334 335 334 335 334 331 329 327 324 321 313
257 268 273 277 278 276 283 288 291 295 295 299 304 307 308 310 312 311 313 315 316 316 320 323 323 325 326 326 326 326 327 328 330 331 332 333 333 333 333 333 333 329 327 326 323 320 315
255 266 275 278 278 281 288 291 295 297 299 301 305 306 308 311 311 311 314 314 316 318 322 322 323 325 325 325 326 326 326 328 329 331 332 331 331 331 331 332 331 329 325 324 321 319 315